Oelwein, IA

1:26 AM CDT on September 24, 2017 (GMT -0500)
Oelwein Municipal

Weather History for KOLZ - October, 2012

Change the Weather History Date:

Tuesday, October 9, 2012

  Actual Average Record
Temperature  
Mean Temperature 45 °F -  
Max Temperature 55 °F 60 °F 82 °F (2003)
Min Temperature 35 °F 40 °F 25 °F (1964)
Degree Days  
Heating Degree Days 20    
Moisture  
Dew Point 34 °F    
Average Humidity 68    
Maximum Humidity 93    
Minimum Humidity 44    
Precipitation  
Precipitation 0.22 in - - ()
Sea Level Pressure  
Sea Level Pressure 29.87 in    
Wind  
Wind Speed 10 mph (WSW)    
Max Wind Speed 17 mph    
Max Gust Speed 30 mph    
Visibility 10 miles    
Events Rain    
Averages and records for this station are not official NWS values.
T = Trace of Precipitation, MM = Missing Value Source: NWS Daily Summary

Daily Weather History Graph

Daily Weather History Graph

Search for Another Location

Airport or City:

Trip Planner

Search our weather history database for the weather conditions in past years. The results will help you decide how hot, cold, wet, or windy it might be!

Date:

Astronomy

Oct. 09, 2012 Rise Set
Actual Time 7:14 AM CDT 6:34 PM CDT
Civil Twilight 6:46 AM CDT 7:02 PM CDT
Nautical Twilight 6:13 AM CDT 7:35 PM CDT
Astronomical Twilight 5:40 AM CDT 8:08 PM CDT
Moon 12:43 AM CDT (10/9) 3:09 PM CDT (10/9)
Length of Visible Light 12h 16m
Length of Day
11h 19m
Last Quarter, 36% of the Moon is Illuminated
Oct 9
Last Quarter
Oct 15
New
Oct 21
First Quarter
Oct 29
Full
Nov 6
Last Quarter

Hourly Weather History & Observations

Time (CDT) Temp. Windchill Dew Point Humidity Pressure Visibility Wind Dir Wind Speed Gust Speed Precip Events Conditions
12:15 AM 51.8 °F - 30.2 °F 44% 29.85 in 10.0 mi SSW 13.8 mph 18.4 mph N/A   Clear
12:34 AM 51.8 °F - 30.2 °F 44% 29.86 in 10.0 mi SW 9.2 mph - N/A   Clear
12:55 AM 50.0 °F - 32.0 °F 50% 29.84 in 10.0 mi SSW 13.8 mph - N/A   Clear
1:15 AM 51.8 °F - 30.2 °F 44% 29.84 in 10.0 mi SSW 15.0 mph 20.7 mph N/A   Clear
1:34 AM 51.8 °F - 30.2 °F 44% 29.84 in 10.0 mi SSW 11.5 mph 17.3 mph N/A   Clear
1:35 AM 51.8 °F - 32.0 °F 47% 29.84 in 10.0 mi SSW 11.5 mph 17.3 mph N/A   Clear
1:54 AM 51.8 °F - 30.2 °F 44% 29.85 in 10.0 mi SSW 9.2 mph - N/A   Clear
1:55 AM 50.0 °F - 32.0 °F 50% 29.85 in 10.0 mi SSW 8.1 mph - N/A   Clear
2:17 AM 51.8 °F - 30.2 °F 44% 29.84 in 10.0 mi SSW 9.2 mph - N/A   Clear
2:35 AM 51.8 °F - 32.0 °F 47% 29.84 in 10.0 mi SSW 10.4 mph - N/A   Clear
2:55 AM 50.0 °F - 32.0 °F 50% 29.82 in 10.0 mi SSW 10.4 mph - N/A   Clear
3:14 AM 50.0 °F - 32.0 °F 50% 29.82 in 10.0 mi SSW 10.4 mph - N/A   Clear
3:15 AM 50.0 °F - 32.0 °F 50% 29.82 in 10.0 mi SSW 10.4 mph - N/A   Clear
3:34 AM 48.2 °F - 32.0 °F 54% 29.81 in 10.0 mi SSW 8.1 mph - N/A   Clear
3:35 AM 48.2 °F - 32.0 °F 54% 29.81 in 10.0 mi SSW 8.1 mph - N/A   Clear
3:54 AM 48.2 °F - 32.0 °F 54% 29.81 in 10.0 mi SSW 8.1 mph - N/A   Clear
3:55 AM 48.2 °F - 32.0 °F 54% 29.81 in 10.0 mi SSW 6.9 mph - N/A   Clear
4:15 AM 48.2 °F - 32.0 °F 54% 29.81 in 10.0 mi South 6.9 mph - N/A   Clear
4:34 AM 48.2 °F - 32.0 °F 54% 29.81 in 10.0 mi South 6.9 mph - N/A   Clear
4:35 AM 48.2 °F - 32.0 °F 54% 29.81 in 10.0 mi South 6.9 mph - N/A   Clear
4:55 AM 48.2 °F - 32.0 °F 54% 29.81 in 10.0 mi South 5.8 mph - N/A   Clear
5:14 AM 48.2 °F - 32.0 °F 54% 29.80 in 10.0 mi South 6.9 mph - N/A   Clear
5:15 AM 48.2 °F - 32.0 °F 54% 29.80 in 10.0 mi South 6.9 mph - N/A   Clear
5:35 AM 46.4 °F 42.4 °F 32.0 °F 57% 29.80 in 10.0 mi South 8.1 mph - N/A   Clear
5:54 AM 48.2 °F - 32.0 °F 54% 29.79 in 10.0 mi South 6.9 mph - N/A   Clear
5:55 AM 46.4 °F 42.9 °F 32.0 °F 57% 29.79 in 10.0 mi South 6.9 mph - N/A   Clear
6:15 AM 46.4 °F 41.9 °F 32.0 °F 57% 29.80 in 10.0 mi South 9.2 mph - N/A   Clear
6:35 AM 46.4 °F 42.9 °F 32.0 °F 57% 29.81 in 10.0 mi South 6.9 mph - N/A   Clear
6:54 AM 48.2 °F - 32.0 °F 54% 29.81 in 10.0 mi SSW 8.1 mph - N/A   Clear
6:55 AM 46.4 °F 42.4 °F 32.0 °F 57% 29.81 in 10.0 mi SSW 8.1 mph - N/A   Clear
7:14 AM 46.4 °F 42.9 °F 32.0 °F 57% 29.82 in 10.0 mi SSW 6.9 mph - N/A   Clear
7:15 AM 46.4 °F 42.9 °F 32.0 °F 57% 29.82 in 10.0 mi SSW 6.9 mph - N/A   Clear
7:34 AM 46.4 °F 44.3 °F 32.0 °F 57% 29.81 in 10.0 mi South 4.6 mph - N/A   Clear
7:35 AM 46.4 °F 44.3 °F 32.0 °F 57% 29.81 in 10.0 mi South 4.6 mph - N/A   Clear
7:54 AM 46.4 °F 44.3 °F 33.8 °F 62% 29.82 in 10.0 mi South 4.6 mph - N/A   Clear
7:55 AM 46.4 °F 44.3 °F 32.0 °F 57% 29.82 in 10.0 mi South 4.6 mph - N/A   Clear
8:15 AM 46.4 °F 43.5 °F 32.0 °F 57% 29.81 in 10.0 mi South 5.8 mph - N/A   Clear
8:16 AM 46.4 °F 44.3 °F 33.8 °F 62% 29.81 in 10.0 mi South 4.6 mph - N/A   Clear
8:35 AM 46.4 °F 43.5 °F 32.0 °F 57% 29.81 in 10.0 mi South 5.8 mph - N/A   Clear
8:54 AM 48.2 °F - 33.8 °F 58% 29.81 in 10.0 mi South 5.8 mph - N/A   Clear
8:55 AM 46.4 °F 43.5 °F 32.0 °F 57% 29.81 in 10.0 mi South 5.8 mph - N/A   Clear
9:15 AM 48.2 °F - 32.0 °F 54% 29.82 in 10.0 mi SW 8.1 mph - N/A   Clear
9:34 AM 50.0 °F - 33.8 °F 54% 29.82 in 10.0 mi WSW 6.9 mph - N/A   Clear
9:35 AM 50.0 °F - 32.0 °F 50% 29.82 in 10.0 mi WSW 8.1 mph - N/A   Clear
9:54 AM 51.8 °F - 33.8 °F 50% 29.83 in 10.0 mi WSW 10.4 mph - N/A   Clear
9:55 AM 51.8 °F - 32.0 °F 47% 29.83 in 10.0 mi SW 10.4 mph - N/A   Clear
10:15 AM 51.8 °F - 32.0 °F 47% 29.83 in 10.0 mi WSW 9.2 mph - N/A   Clear
10:16 AM 51.8 °F - 33.8 °F 50% 29.83 in 10.0 mi West 9.2 mph - N/A   Clear
10:34 AM 53.6 °F - 35.6 °F 51% 29.83 in 10.0 mi West 9.2 mph - N/A   Clear
10:35 AM 51.8 °F - 33.8 °F 50% 29.83 in 10.0 mi West 9.2 mph - N/A   Clear
10:55 AM 51.8 °F - 35.6 °F 54% 29.83 in 10.0 mi West 10.4 mph - N/A   Clear
11:14 AM 53.6 °F - 37.4 °F 54% 29.83 in 10.0 mi West 10.4 mph - N/A   Clear
11:15 AM 53.6 °F - 35.6 °F 51% 29.83 in 10.0 mi West 10.4 mph - N/A   Clear
11:34 AM 55.4 °F - 37.4 °F 51% 29.82 in 10.0 mi WNW 11.5 mph - N/A   Clear
11:35 AM 53.6 °F - 35.6 °F 51% 29.82 in 10.0 mi WNW 12.7 mph - N/A   Clear
11:54 AM 53.6 °F - 39.2 °F 58% 29.84 in 10.0 mi West 15.0 mph 19.6 mph N/A   Clear
11:55 AM 53.6 °F - 37.4 °F 54% 29.84 in 10.0 mi West 15.0 mph 19.6 mph N/A   Clear
12:14 PM 51.8 °F - 41.0 °F 67% 29.84 in 10.0 mi WNW 13.8 mph 21.9 mph N/A Rain Rain
12:15 PM 51.8 °F - 41.0 °F 67% 29.84 in 10.0 mi WNW 12.7 mph 21.9 mph N/A Rain Rain
12:34 PM 48.2 °F - 44.6 °F 87% 29.85 in 7.0 mi WNW 17.3 mph 23.0 mph N/A Rain Light Rain
12:35 PM 48.2 °F - 42.8 °F 82% 29.85 in 7.0 mi WNW 17.3 mph 23.0 mph N/A Rain Light Rain
12:55 PM 44.6 °F 37.2 °F 41.0 °F 87% 29.86 in 7.0 mi NW 17.3 mph 29.9 mph 0.01 in Rain Light Rain
1:14 PM 44.6 °F 37.8 °F 41.0 °F 87% 29.86 in 5.0 mi NW 15.0 mph 23.0 mph 0.03 in Rain Rain
1:15 PM 42.8 °F 35.8 °F 41.0 °F 93% 29.86 in 5.0 mi NW 13.8 mph 23.0 mph 0.03 in Rain Rain
1:34 PM 44.6 °F 39.2 °F 41.0 °F 87% 29.86 in 7.0 mi NW 10.4 mph - 0.07 in Rain Rain
1:35 PM 42.8 °F 37.0 °F 41.0 °F 93% 29.86 in 7.0 mi NW 10.4 mph - 0.07 in Rain Rain
1:54 PM 44.6 °F 39.7 °F 41.0 °F 87% 29.86 in 10.0 mi NW 9.2 mph 16.1 mph 0.09 in Rain Light Rain
1:55 PM 42.8 °F 37.5 °F 41.0 °F 93% 29.86 in 10.0 mi NW 9.2 mph 16.1 mph 0.09 in Rain Light Rain
2:14 PM 44.6 °F 38.1 °F 41.0 °F 87% 29.87 in 10.0 mi WNW 13.8 mph 18.4 mph 0.02 in Rain Light Rain
2:15 PM 42.8 °F 35.4 °F 41.0 °F 93% 29.87 in 10.0 mi WNW 15.0 mph 18.4 mph 0.02 in Rain Light Rain
2:34 PM 44.6 °F 39.7 °F 39.2 °F 81% 29.88 in 10.0 mi WNW 9.2 mph - 0.04 in Rain Rain
2:35 PM 42.8 °F 37.0 °F 39.2 °F 87% 29.88 in 10.0 mi WNW 10.4 mph - 0.04 in Rain Rain
2:54 PM 42.8 °F 36.6 °F 39.2 °F 87% 29.89 in 7.0 mi WNW 11.5 mph - 0.06 in Rain Rain
2:55 PM 42.8 °F 36.6 °F 37.4 °F 81% 29.89 in 7.0 mi WNW 11.5 mph - 0.06 in Rain Rain
3:14 PM 42.8 °F 38.6 °F 39.2 °F 87% 29.89 in 7.0 mi West 6.9 mph - 0.04 in Rain Rain
3:15 PM 41.0 °F 36.4 °F 37.4 °F 87% 29.89 in 7.0 mi West 6.9 mph - 0.04 in Rain Rain
3:33 PM 42.8 °F 39.3 °F 39.2 °F 87% 29.89 in 10.0 mi WSW 5.8 mph - 0.05 in Rain Rain
3:35 PM 41.0 °F 37.1 °F 37.4 °F 87% 29.89 in 10.0 mi WSW 5.8 mph - 0.05 in Rain Rain
3:54 PM 42.8 °F 39.3 °F 37.4 °F 81% 29.89 in 10.0 mi WSW 5.8 mph - 0.06 in   Clear
3:55 PM 41.0 °F 38.0 °F 37.4 °F 87% 29.89 in 10.0 mi SW 4.6 mph - 0.06 in   Clear
4:14 PM 42.8 °F 38.0 °F 39.2 °F 87% 29.89 in 10.0 mi SW 8.1 mph - N/A   Clear
4:15 PM 41.0 °F 35.8 °F 37.4 °F 87% 29.89 in 10.0 mi SW 8.1 mph - N/A   Clear
4:34 PM 42.8 °F 38.6 °F 39.2 °F 87% 29.89 in 10.0 mi SW 6.9 mph - N/A   Clear
4:35 PM 42.8 °F 39.3 °F 37.4 °F 81% 29.89 in 10.0 mi SW 5.8 mph - N/A   Clear
4:54 PM 42.8 °F 37.5 °F 39.2 °F 87% 29.89 in 10.0 mi SW 9.2 mph - N/A   Clear
4:55 PM 42.8 °F 37.0 °F 39.2 °F 87% 29.89 in 10.0 mi SW 10.4 mph - N/A   Clear
5:14 PM 42.8 °F 37.5 °F 39.2 °F 87% 29.89 in 10.0 mi SW 9.2 mph - N/A   Clear
5:15 PM 42.8 °F 37.5 °F 39.2 °F 87% 29.89 in 10.0 mi SW 9.2 mph - N/A   Clear
5:34 PM 42.8 °F 38.0 °F 39.2 °F 87% 29.89 in 10.0 mi WSW 8.1 mph - N/A   Clear
5:35 PM 42.8 °F 38.0 °F 39.2 °F 87% 29.89 in 10.0 mi WSW 8.1 mph - N/A   Clear
5:54 PM 44.6 °F 40.7 °F 39.2 °F 81% 29.89 in 10.0 mi WSW 6.9 mph - N/A   Clear
5:55 PM 42.8 °F 38.6 °F 39.2 °F 87% 29.89 in 10.0 mi WSW 6.9 mph - N/A   Clear
6:14 PM 42.8 °F 39.3 °F 39.2 °F 87% 29.89 in 10.0 mi WSW 5.8 mph - N/A   Clear
6:15 PM 42.8 °F 39.3 °F 39.2 °F 87% 29.89 in 10.0 mi WSW 5.8 mph - N/A   Clear
6:34 PM 42.8 °F 39.3 °F 39.2 °F 87% 29.89 in 10.0 mi SW 5.8 mph - N/A   Clear
6:35 PM 42.8 °F 39.3 °F 39.2 °F 87% 29.90 in 10.0 mi SW 5.8 mph - N/A   Clear
6:54 PM 42.8 °F 39.3 °F 39.2 °F 87% 29.90 in 10.0 mi West 5.8 mph - N/A   Clear
6:55 PM 42.8 °F 38.6 °F 39.2 °F 87% 29.90 in 10.0 mi West 6.9 mph - N/A   Clear
7:14 PM 42.8 °F 36.6 °F 35.6 °F 76% 29.91 in 10.0 mi WNW 11.5 mph - N/A   Clear
7:15 PM 42.8 °F 36.6 °F 35.6 °F 76% 29.91 in 10.0 mi WNW 11.5 mph - N/A   Clear
7:34 PM 42.8 °F 38.0 °F 33.8 °F 70% 29.92 in 10.0 mi WNW 8.1 mph - N/A   Clear
7:35 PM 42.8 °F 38.0 °F 33.8 °F 70% 29.92 in 10.0 mi WNW 8.1 mph - N/A   Clear
7:54 PM 41.0 °F 35.8 °F 32.0 °F 70% 29.93 in 10.0 mi WNW 8.1 mph - N/A   Clear
7:55 PM 41.0 °F 35.8 °F 32.0 °F 70% 29.93 in 10.0 mi WNW 8.1 mph - N/A   Clear
8:14 PM 39.2 °F 34.2 °F 32.0 °F 75% 29.93 in 10.0 mi WNW 6.9 mph - N/A   Clear
8:15 PM 39.2 °F 34.2 °F 32.0 °F 75% 29.93 in 10.0 mi WNW 6.9 mph - N/A   Clear
8:34 PM 39.2 °F 34.2 °F 32.0 °F 75% 29.93 in 10.0 mi West 6.9 mph - N/A   Clear
8:35 PM 39.2 °F 34.2 °F 32.0 °F 75% 29.93 in 10.0 mi West 6.9 mph - N/A   Clear
8:55 PM 37.4 °F 32.8 °F 32.0 °F 81% 29.94 in 10.0 mi West 5.8 mph - N/A   Clear
9:14 PM 41.0 °F 34.7 °F 30.2 °F 65% 29.95 in 10.0 mi WNW 10.4 mph - N/A   Clear
9:15 PM 41.0 °F 34.7 °F 32.0 °F 70% 29.95 in 10.0 mi WNW 10.4 mph - N/A   Clear
9:34 PM 39.2 °F 32.5 °F 30.2 °F 70% 29.97 in 10.0 mi WNW 10.4 mph - N/A   Clear
9:35 PM 37.4 °F 30.3 °F 32.0 °F 81% 29.97 in 10.0 mi WNW 10.4 mph - N/A   Clear
9:54 PM 37.4 °F 30.8 °F 30.2 °F 75% 29.97 in 10.0 mi WNW 9.2 mph - N/A   Clear
9:55 PM 35.6 °F 28.6 °F 30.2 °F 81% 29.97 in 10.0 mi WNW 9.2 mph - N/A   Clear
10:14 PM 37.4 °F 30.8 °F 30.2 °F 75% 29.99 in 10.0 mi WNW 9.2 mph - N/A   Clear
10:15 PM 35.6 °F 28.6 °F 30.2 °F 81% 29.99 in 10.0 mi WNW 9.2 mph - N/A   Clear
10:34 PM 37.4 °F 30.8 °F 28.4 °F 70% 29.99 in 10.0 mi NW 9.2 mph 16.1 mph N/A   Clear
10:35 PM 35.6 °F 28.0 °F 30.2 °F 81% 29.99 in 10.0 mi NW 10.4 mph 16.1 mph N/A   Clear
10:54 PM 37.4 °F 29.8 °F 28.4 °F 70% 29.99 in 10.0 mi NW 11.5 mph - N/A   Clear
10:55 PM 35.6 °F 27.5 °F 28.4 °F 75% 29.99 in 10.0 mi NW 11.5 mph - N/A   Clear
11:14 PM 35.6 °F 28.0 °F 26.6 °F 70% 30.00 in 10.0 mi NW 10.4 mph - N/A   Clear
11:15 PM 35.6 °F 28.0 °F 28.4 °F 75% 30.00 in 10.0 mi NW 10.4 mph - N/A   Clear
11:34 PM 35.6 °F 28.0 °F 26.6 °F 70% 29.99 in 10.0 mi WNW 10.4 mph - N/A   Clear
11:35 PM 35.6 °F 28.0 °F 28.4 °F 75% 29.99 in 10.0 mi WNW 10.4 mph - N/A   Clear
11:54 PM 35.6 °F 29.2 °F 26.6 °F 70% 30.00 in 10.0 mi WNW 8.1 mph - N/A   Clear
11:55 PM 35.6 °F 29.2 °F 28.4 °F 75% 30.00 in 10.0 mi WNW 8.1 mph - N/A   Clear